Regional Weather Roundup
Issued by NWS

Home | Current Version | Previous Version | Text Only | Print | Product List | Glossary Off
Versions: 1 2 3 4 5 6 7 8 9 10 11 12 13 14 15 16 17 18 19 20 21 22 23 24 25 26 27 28 29 30 31 32 33 34 35 36 37 38 39 40 41 42 43 44 45 46 47 48 49 50

000
ASUS45 KBOU 270407
RWRCO

WEATHER ROUNDUP FOR COLORADO
NATIONAL WEATHER SERVICE DENVER/BOULDER CO
900 PM MST THU FEB 26 2015

NOTE: "FAIR" INDICATES FEW OR NO CLOUDS BELOW 12000 FEET WITH NO
SIGNIFICANT WEATHER AND/OR OBSTRUCTIONS TO VISIBILITY.

COZ001>005-013-030-031-270500-
...NORTHWEST COLORADO...

CITY           SKY/WX    TMP DP  RH WIND       PRES   REMARKS
CRAIG          LGT SNOW  25  20  81 N8        29.87S WCI  16
HAYDEN         CLOUDY    23  19  86 CALM      29.85S
MEEKER         SNOW      26  23  88 NE8       29.84S VSB 1/2 WCI  18
MOUNT WERNER   NOT AVBL
STEAMBOAT SPGS CLOUDY    20  19  94 CALM      29.84S
WALDEN         CLOUDY    10   5  79 NW10      29.84S WCI  -3
$$

COZ006>008-011-270500-
...WEST CENTRAL VALLEYS...

CITY           SKY/WX    TMP DP  RH WIND       PRES   REMARKS
GRAND JUNCTION CLOUDY    36  24  62 S5        29.84F
MONTROSE       CLOUDY    29  22  75 CALM      29.87S
EAGLE          FLURRIES  28  25  86 SW3       29.85S
RIFLE          CLOUDY    32  25  75 E5        29.84S WCI  27
DELTA          CLOUDY    34  28  78 CALM      29.86S
NUCLA          CLOUDY    32  27  80 CALM      29.90S
$$

COZ017>023-064>068-270500-
...SOUTHWEST COLORADO...

CITY           SKY/WX    TMP DP  RH WIND       PRES   REMARKS
DURANGO        LGT SNOW  28  26  92 E3        29.84F FOG
CORTEZ         SNOW      31  30  96 CALM      29.86S VSB 1/2
PAGOSA SPRINGS LGT SNOW  28  27  96 CALM      29.85F VSB 1
TELLURIDE      LGT SNOW  22  21  97 CALM      29.82F
WOLF CREEK PAS SNOW      10   9  92 SW17G23   29.81F VSB 1/2 WCI  -7
$$

COZ009-010-012-014-032>034-037-058>063-270500-
...CENTRAL COLORADO...

CITY           SKY/WX    TMP DP  RH WIND       PRES   REMARKS
ASPEN          CLOUDY    21  18  88 CALM      29.80S
BUENA VISTA    LGT SNOW   9   4  81 SE10      29.93R WCI  -5
COPPER MTN     LGT SNOW  14   9  79 SW6G17    29.73S WCI   5
BERTHOUD PASS  LGT SNOW   3  -4  72 W20       29.71F WCI -18
COTTONWOOD PAS LGT SNOW   9   3  78 CALM      29.82S VSB 3/4
GUNNISON       PTCLDY    18   7  62 CALM      29.86S
KREMMLING      LGT SNOW  19  14  79 N8        29.85S WCI   9
LEADVILLE      LGT SNOW   5   2  87 S13       29.77R FOG     WCI -12
SALIDA         CLOUDY    10   4  77 E14G20    30.03R WCI  -6
SUNLIGHT       LGT SNOW  18  14  86 CALM      29.76F VSB 1
WILKERSON PASS LGT SNOW  -4  -8  84 S6        29.78S WCI -16
$$

COZ069>075-270500-
...SAN LUIS VALLEY/SANGRE DE CRISTO MOUNTAINS...

CITY           SKY/WX    TMP DP  RH WIND       PRES   REMARKS
ALAMOSA        CLOUDY    18  14  84 S6        29.84S WCI  10
LA VETA PASS   LGT SNOW   0  -6  78 N7        29.83S VSB 1   WCI -13
SAGUACHE       CLOUDY    21  19  93 CALM      29.84F
$$

COZ035-036-038>040-270500-
...NORTHERN COLORADO FRONT RANGE...

CITY           SKY/WX    TMP DP  RH WIND       PRES   REMARKS
DENVER INTL AP LGT SNOW  13  10  88 E15       30.11F FOG     WCI  -3
DMNS CITY PARK   N/A     12  10  92 NW7       30.11S WCI   1
AURORA         LGT SNOW  13   9  87 S20       30.08S BLWGSNOWWCI  -5
FRONT RANGE AP NOT AVBL
ERIE MUNI ARPT LGT SNOW  13  11  90 NE6       30.16S WCI   4
BOULDER MUN AP LGT SNOW  14  12  92 N5        30.14F WCI   6
CENTENNIAL     LGT SNOW  12  10  92 SW6       30.08R FOG     WCI   3
BROOMFIELD     LGT SNOW  12  10  92 N8        30.12S VSB 1   WCI   1
FORT COLLINS   CLOUDY    12   9  85 E3        30.18S
LONGMONT       LGT SNOW  15  12  85 N3        30.19S VSB 1
$$

COZ041-046-047-076>085-087-088-270500-
...PIKES PEAK/PALMER DIVIDE AND SOUTHERN FOOTHILLS...

CITY           SKY/WX    TMP DP  RH WIND       PRES   REMARKS
COLO. SPRINGS  LGT SNOW   8   6  92 SE6       30.12S FOG     WCI  -2
A. F. ACADEMY  LGT SNOW   7   1  78 S9        30.07S WCI  -7
ELLICOTT       NOT AVBL
FALCON         LGT SNOW   3   0  86 S5        30.07S WCI  -7
FORT CARSON    LGT SNOW   9   6  89 S3        30.12S
LIMON          LGT SNOW  10   7  87 S15       30.17S FOG     WCI  -7
MONUMENT HILL  CLOUDY     5   1  85 S13       30.02S WCI -12
TRINIDAD       LGT SNOW  15  10  80 NW13      30.08S WCI   1
$$

COZ042>045-048>051-090-091-270500-
...NORTHEAST COLORADO...

CITY           SKY/WX    TMP DP  RH WIND       PRES   REMARKS
GREELEY ARPT   CLOUDY    14   7  73 E15       30.18F WCI  -1
AKRON          CLOUDY    12   8  84 SE12      30.22S FOG     WCI  -2
BURLINGTON     CLOUDY    15   8  73 E6        30.28S WCI   6
WRAY           CLOUDY    16   6  66 E10       30.34R WCI   3
STERLING       CLOUDY    14  10  85 E10       30.28S HAZE    WCI   1
HOLYOKE        NOT AVBL
FORT MORGAN    LGT SNOW  13   9  83 E10       30.23F WCI   0
$$

COZ086-089-092>099-270500-
...SOUTHEAST COLORADO...

CITY           SKY/WX    TMP DP  RH WIND       PRES   REMARKS
PUEBLO         LGT SNOW  14  11  87 E9        30.20S FOG     WCI   2
LA JUNTA       LGT SNOW  16  12  84 E15       30.24S FOG     WCI   1
LAMAR          LGT SNOW  16  13  88 SE10      30.30R VSB 3/4 WCI   4
SPRINGFIELD      N/A     13  10  88 E12       30.25S WCI  -1
$$


USA.gov is the U.S. government's official web portal to all federal, state and local government web resources and services.